SCP
2 1 1 1 1 1 1 2 2 2 2 2 2 2 1 1 1 1 1 1 1 1 1 1 1 1 2 2 2 2 2 2 2 2 2 2 2 1 2 2 2 1 1
2 2 1 1 1 1 1 2 2 2 2 2 2 2 1 1 1 1 1 1 1 1 1 1 2 2 2 2 2 2 2 2 2 2 2 2 2 2 2 2 2 1 1
2 2 1 1 1 1 1 1 2 2 2 2 2 2 2 2 1 1 1 1 1 1 1 1 2 2 2 2 2 2 2 2 2 2 2 2 2 2 2 2 2 2 1
3 2 1 1 1 1 1 1 1 2 2 2 2 2 2 1 1 1 1 1 1 1 1 1 2 2 2 2 2 2 2 2 2 2 2 2 2 2 2 2 2 2 2
3 3 2 1 1 1 1 1 1 1 2 2 2 2 1 1 1 1 1 1 1 1 1 1 1 2 2 2 2 2 2 2 2 2 2 2 2 2 2 2 2 2 2
3 3 2 1 1 1 1 1 1 1 1 2 2 1 1 1 1 1 1 1 1 1 1 1 1 1 2 2 2 2 2 2 2 2 2 2 2 2 2 2 2 2 2
3 3 2 1 1 1 1 1 1 1 1 1 1 1 1 0 0 0 1 1 1 1 1 1 1 1 2 2 2 2 2 2 2 2 2 2 2 2 2 2 2 2 2
4 3 2 1 1 1 1 1 1 1 1 1 1 1 1 1 0 0 0 1 1 1 1 1 1 1 1 1 2 2 2 2 2 2 2 3 2 2 2 2 2 2 2
4 3 2 2 1 1 1 1 1 1 1 1 1 1 1 1 1 1 0 0 1 1 1 1 1 1 1 1 1 1 1 1 2 2 2 2 2 2 3 2 2 2 2
4 4 3 2 2 1 1 1 1 1 1 1 1 1 1 1 1 1 1 1 1 0 0 0 1 1 1 1 1 1 1 1 1 2 2 2 2 3 3 3 2 2 2
4 4 3 3 2 2 1 1 1 1 1 1 1 1 1 0 0 0 0 0 0 0 0 0 0 1 1 1 1 1 1 1 1 1 2 2 2 3 3 3 2 2 2
3 3 3 3 2 2 1 1 1 1 1 1 1 1 1 0 0 0 0 0 0 0 0 0 0 0 0 1 1 1 1 1 1 1 1 2 2 3 3 3 3 2 2
2 3 3 3 2 2 1 1 1 1 1 1 1 0 0 0 0 0 0 0 0 0 0 0 0 0 0 0 1 1 1 1 1 1 1 1 2 3 3 2 2 2 2
2 2 3 3 2 2 1 1 1 1 1 1 1 0 0 0 0 0 0 0 0 0 0 0 0 0 0 0 1 1 1 1 1 1 1 1 2 2 2 2 2 2 2
1 2 2 2 2 2 1 1 1 1 1 1 0 0 0 0 0 0 0 0 0 0 0 0 0 0 0 0 0 1 1 1 1 1 1 1 1 2 2 2 1 1 2
1 1 2 2 2 1 1 1 1 1 0 0 0 0 0 0 0 0 0 0 0 0 0 0 0 0 0 0 0 0 1 0 0 0 1 1 1 1 1 1 1 1 1
1 1 1 1 1 1 1 1 1 0 0 0 0 0 0 0 0 0 0 0 0 0 0 0 0 0 0 0 0 1 1 1 1 0 0 0 0 0 1 1 1 1 1
1 1 1 1 1 1 1 1 0 0 0 0 0 0 0 0 0 0 0 0 0 0 0 0 0 0 0 0 0 1 1 1 0 0 0 0 0 0 0 0 0 0 0
0 1 1 1 1 0 0 0 0 0 0 0 0 0 0 0 0 0 0 0 0 0 0 0 0 0 0 0 0 1 1 1 0 0 0 0 0 0 0 0 0 0 0
0 0 0 0 0 0 0 0 0 0 0 0 0 0 0 0 0 0 0 0 0 0 0 0 0 0 0 0 0 0 1 1 0 0 0 0 0 0 0 0 0 0 0
0 0 0 0 0 0 0 0 0 0 0 0 0 0 0 0 0 0 0 0 0 0 0 0 0 0 0 0 0 0 0 0 0 0 0 0 0 0 0 0 0 0 0
0 0 0 0 0 0 0 0 0 0 0 0 0 0 0 0 0 0 0 0 0 0 0 0 0 0 0 0 0 0 0 1 0 0 0 0 0 0 0 0 0 0 0
0 0 0 0 0 0 0 0 0 0 0 0 0 0 0 0 0 0 0 0 0 0 0 0 0 0 0 0 0 0 0 1 1 1 0 0 0 0 1 1 0 0 0
0 0 0 0 0 0 0 0 0 0 0 0 0 0 0 0 0 0 0 0 0 0 0 0 0 0 0 0 0 0 0 1 1 1 1 0 0 0 1 1 0 0 0
0 0 0 0 0 0 0 0 0 0 0 0 0 0 0 0 0 0 0 0 0 0 0 0 0 0 0 0 0 0 0 1 1 1 1 1 0 0 0 1 1 0 0
0 0 0 0 0 0 0 0 0 0 0 0 0 0 0 0 0 0 0 0 0 0 0 0 0 0 0 0 0 0 0 1 1 1 1 1 0 0 0 1 1 0 0
Wind_Speed
1 0 0 0 0 0 0 0 1 1 1 0 1 1 2 2 2 2 2 6 7 8 8 8 8 8 8 8 8 8 9 10 11 11 11 10 10 10 10 10 10 10 10
1 1 0 0 0 0 1 1 1 1 1 1 1 1 2 2 2 3 3 4 7 7 8 8 8 8 9 9 8 8 8 10 10 10 11 11 11 10 10 10 10 10 10
1 1 1 0 1 0 0 1 0 1 0 0 1 1 1 2 2 3 3 2 3 6 7 8 8 8 8 9 9 9 9 9 10 10 10 11 11 11 10 10 10 10 10
1 1 1 1 0 0 0 1 0 0 0 0 1 1 1 2 2 3 3 3 2 3 5 6 6 7 8 9 10 10 10 9 9 10 10 10 11 11 11 11 11 10 10
1 1 1 1 0 1 0 0 1 1 1 1 1 1 1 2 2 2 3 3 3 2 3 4 6 7 8 9 10 10 9 9 10 10 10 10 10 10 11 11 10 10 10
1 1 1 0 1 1 0 0 0 0 0 1 1 1 2 2 1 2 2 2 2 2 3 3 3 4 7 8 9 10 10 10 10 10 10 10 9 9 10 10 10 10 10
1 1 1 0 1 1 1 1 0 1 0 0 1 2 2 1 1 1 1 1 1 2 2 3 3 2 3 6 7 8 9 9 10 10 10 9 9 10 10 10 11 11 11
1 1 1 1 1 1 1 1 1 1 0 1 1 1 2 2 2 2 1 1 1 1 2 3 3 3 3 3 4 8 8 9 10 10 11 10 9 10 10 10 10 11 11
0 1 1 1 1 1 1 1 2 2 1 0 1 2 1 1 2 2 2 1 2 1 2 2 3 3 4 3 4 6 8 8 9 11 11 10 10 10 11 10 11 11 11
1 1 1 1 1 1 1 2 2 2 2 1 1 1 1 2 1 2 2 2 2 2 2 2 3 3 3 3 4 6 7 7 8 9 10 10 10 10 11 11 11 11 12
1 0 1 1 1 1 1 1 1 2 2 2 2 1 1 0 1 1 2 3 2 2 2 2 2 2 3 3 3 5 7 7 8 8 9 10 11 11 11 12 12 12 13
1 1 0 1 1 1 2 2 2 2 2 2 2 2 2 2 1 2 2 3 3 3 2 2 2 3 3 3 4 5 6 7 7 7 8 9 10 11 11 12 13 13 13
1 1 1 1 1 2 2 2 2 2 3 3 3 2 2 2 2 2 2 2 2 2 2 2 2 2 2 2 3 5 5 5 5 5 6 7 9 10 10 11 12 12 12
2 1 1 1 1 2 2 1 2 2 2 2 3 2 2 2 2 3 2 2 2 2 2 3 2 2 2 2 3 4 4 5 5 5 5 5 6 7 8 10 10 10 10
1 1 1 1 1 1 1 1 1 2 2 2 2 2 2 2 2 2 2 3 2 2 3 2 2 2 2 2 3 3 3 4 4 5 4 4 5 6 7 8 8 8 8
1 1 1 0 1 1 0 1 1 1 1 1 1 1 1 1 1 1 2 2 3 3 3 2 3 2 2 2 2 2 3 3 4 4 4 4 4 4 5 6 7 7 8
1 1 1 1 1 0 0 0 1 1 1 1 1 1 2 2 1 1 1 2 2 2 3 2 2 2 2 2 2 1 1 2 2 3 4 3 4 5 5 5 5 6 7
1 1 1 1 1 0 0 0 0 0 0 1 1 1 2 1 1 1 1 2 2 2 3 3 2 2 2 2 2 1 1 1 1 2 3 3 3 4 4 4 5 5 6
1 1 1 1 1 1 0 0 0 0 0 1 1 1 2 1 2 1 2 2 2 2 2 2 2 1 2 1 1 1 0 0 0 0 1 2 3 4 5 5 4 5 5
1 1 1 1 1 0 0 1 0 0 1 1 2 2 2 2 2 2 1 2 1 1 1 1 1 1 1 1 0 1 0 1 1 1 1 1 2 3 4 4 4 5 5
1 1 0 0 0 0 1 1 1 0 1 1 2 2 2 2 2 1 1 1 1 1 1 1 1 1 1 1 1 1 1 0 0 0 1 1 1 1 1 2 4 5 5
0 1 1 0 0 1 1 1 1 1 1 1 2 2 2 2 2 2 2 1 2 2 2 2 2 2 2 2 1 1 1 0 0 1 1 1 1 1 0 1 3 4 4
0 0 0 0 1 2 2 1 1 1 1 1 2 2 2 2 2 1 2 2 1 2 3 3 2 3 2 2 2 2 1 1 1 1 2 1 1 0 0 1 2 3 4
1 1 1 1 1 2 2 1 1 0 1 1 2 2 2 2 2 1 1 2 2 2 2 2 3 3 2 2 2 2 2 2 1 1 2 1 1 0 0 0 1 3 4
0 1 1 1 1 2 2 2 1 0 1 2 2 1 2 2 2 1 1 1 2 2 2 0 1 1 1 2 2 2 2 2 1 0 1 1 1 1 0 0 1 2 3
1 1 1 1 2 3 3 2 1 1 1 2 2 2 2 2 2 1 1 1 1 2 2 2 1 1 0 1 1 2 3 2 1 1 2 2 2 1 0 0 0 1 1
Wind_Direction
151 139 26 346 342 161 150 118 123 149 159 195 224 204 209 206 215 225 229 226 222 220 219 221 222 221 222 221 217 216 212 213 211 207 204 206 207 208 206 204 203 202 201
165 158 183 259 270 232 192 171 172 171 191 205 256 254 242 224 224 230 231 233 233 229 227 228 229 229 228 227 223 220 216 214 212 210 208 208 208 207 206 204 204 205 204
165 160 169 213 272 263 165 127 122 126 161 202 272 277 255 239 229 234 238 241 241 237 235 233 232 233 235 234 228 227 224 220 217 218 216 213 210 210 210 208 206 206 206
147 147 156 212 262 80 96 129 135 123 170 223 257 264 259 250 241 234 229 234 240 240 242 237 232 233 235 235 231 230 228 221 218 223 224 217 212 212 212 210 209 209 209
135 141 163 214 159 94 78 155 98 154 209 283 273 270 276 264 258 244 232 230 228 235 237 237 232 233 235 235 232 231 229 225 220 222 224 220 215 213 212 208 207 207 207
153 130 147 169 145 124 90 89 95 98 185 241 278 304 297 286 261 245 238 239 231 238 238 237 234 238 236 234 233 232 230 229 223 221 223 222 217 212 211 209 208 208 206
159 153 148 135 146 159 201 203 108 93 42 52 45 346 327 329 293 258 256 256 259 258 235 225 223 224 233 236 235 232 231 229 227 225 227 225 220 215 213 213 212 210 209
196 178 167 179 181 163 161 173 129 126 304 84 113 71 344 337 334 318 298 261 273 280 257 242 223 221 227 232 235 234 235 234 231 229 231 229 223 216 212 215 214 212 210
242 185 186 176 186 181 200 208 184 166 192 235 149 149 155 246 308 317 315 309 299 282 266 260 241 233 227 227 234 236 235 234 235 233 230 229 226 221 216 215 217 215 213
261 207 196 177 187 196 207 220 192 185 173 206 228 207 196 189 204 304 321 321 318 293 277 267 260 251 236 231 231 232 235 233 234 238 237 232 228 225 223 219 217 216 216
299 250 204 189 194 204 218 212 200 195 189 195 201 188 173 122 198 217 284 307 315 300 286 269 262 255 244 234 235 238 238 237 235 237 240 236 234 231 230 226 220 218 218
305 300 252 213 219 217 223 221 213 206 206 202 208 197 190 189 203 206 247 285 295 300 296 277 264 255 251 242 242 242 240 237 234 235 239 239 238 234 233 230 225 220 219
253 264 259 242 236 234 230 216 209 220 211 204 211 218 211 211 202 198 213 258 278 294 298 286 267 259 253 245 247 249 243 239 233 231 238 240 238 233 230 229 225 219 217
235 241 229 235 240 238 235 208 210 222 212 215 222 220 220 222 211 208 200 201 271 283 276 274 286 271 261 247 252 250 248 243 241 237 236 238 235 229 221 217 217 212 211
226 201 191 232 261 250 232 212 219 227 216 224 225 222 227 227 220 224 215 203 208 256 273 269 273 279 270 252 256 245 243 245 243 240 234 232 229 221 209 202 205 202 199
207 180 200 230 283 300 249 207 227 223 210 232 222 218 242 243 236 233 219 220 217 220 248 257 260 276 286 274 264 244 241 250 246 243 236 225 213 203 196 194 196 198 197
189 197 206 211 230 259 279 223 248 215 199 245 249 223 244 236 234 246 233 229 226 215 240 269 264 272 275 270 275 261 244 235 242 241 232 217 197 189 184 187 194 198 195
194 197 190 190 227 230 229 206 262 10 99 292 282 251 249 238 239 249 240 237 231 221 223 255 272 268 267 266 253 259 287 267 236 234 226 212 185 173 174 181 182 186 184
182 171 167 209 249 244 247 243 184 310 285 264 259 258 272 260 259 263 252 243 237 232 221 231 260 260 270 282 276 264 301 318 276 223 205 191 172 164 164 170 175 178 173
177 191 208 233 244 233 229 216 202 301 294 294 286 271 271 255 248 252 250 249 226 210 209 222 249 264 274 298 228 212 280 27 355 13 51 89 127 140 151 161 175 177 172
194 190 182 286 299 195 221 203 195 223 281 305 310 301 289 287 271 248 244 241 204 200 206 213 239 244 261 264 240 221 214 138 14 101 103 67 102 123 143 158 174 173 168
185 133 144 191 297 281 287 242 178 190 270 282 297 308 311 314 326 316 305 268 194 193 203 209 225 230 247 234 226 207 183 172 244 108 120 81 104 144 208 194 171 164 161
158 115 156 205 280 300 318 310 224 178 259 282 283 291 304 321 338 322 327 331 279 251 209 200 218 232 226 221 195 193 181 169 190 183 141 129 124 150 233 147 148 159 163
207 215 222 241 257 296 315 308 305 237 280 291 282 265 272 299 317 330 336 350 331 304 254 224 233 244 237 217 199 195 174 134 106 148 161 154 158 202 85 83 121 150 162
195 240 234 231 247 285 293 281 275 233 293 302 302 294 272 277 301 337 12 345 339 326 323 248 238 264 244 207 183 157 160 153 150 177 158 159 153 118 72 69 128 148 156
210 219 260 247 243 262 282 275 243 207 266 296 310 302 287 277 298 306 214 231 294 305 331 352 2 349 314 209 190 191 186 178 174 201 174 169 169 165 144 137 138 163 157